{"data":{"norad_id":67606,"epoch":"2026-09-19T22:29:56.860224Z","epoch_age_seconds":117529,"freshness":"FRESH","line1":"1 67606U 26018T   26262.93746366  .00011879  00000+0  36963-3 0  9999","line2":"2 67606  97.2869 326.3954 0000604  94.2939 265.8373 15.33452019 37104","mean_motion":15.33452019,"eccentricity":6.04e-5,"inclination_deg":97.2869,"raan_deg":326.3954,"arg_perigee_deg":94.2939,"mean_anomaly_deg":265.8373,"bstar":0.00036963,"rev_number":3710,"period_min":93.905774824246,"perigee_km":465.1089339309,"apogee_km":465.93564797325,"semimajor_km":6843.6592909521,"source":"CELESTRAK","updated_at":"2026-09-20T09:00:43.606608Z"}}